Find Starlink 5489

NORAD ID: 56136 Int'l Des: 2023-046 Owner: SPXS Country: US Constellation: starlink operational
LEOCIRCULAR

Live-Position

3D-Globus wird geladen...

Über Starlink 5489

Beschreibung wird geladen...

Nächste Überflüge

Passes for default location (London). Set your location on the main map for personalized predictions.

Höhenverlauf

Loading altitude history...

Zweizeiliger Elementsatz

1 56136U 23046AW 26118.78362981 .00002321 00000-0 93852-4 0 9997
2 56136 43.0009 223.8822 0001433 285.1473 74.9220 15.27576876169865
Epoch: 28. Apr. 2026 • Age: 10 hours

Aktueller Status

Höhe 485.6 km
Geschwindigkeit 7.62 km/s
Subsatellitenpunkt -13.86°S, 123.1°E
Startdatum 29. März 2023
Alter 3 years
Typ internet

Technische Details

Klassifizierung Payload
Masse 305.00 kg
Trockenmasse 290.00 kg
Gesamtmasse 305.00 kg
Länge 0.20 m
Durchmesser 2.80 m
Spannweite 9.00 m
Form Box + pan
Hersteller SPXS
Bus-Typ Starlink
Phasenstatus In Orbit
Besitzer/Staat SPXS/US

Most Searched